Atlantic City, NJ

8:13 PM EDT on April 24, 2017 (GMT -0400)
Atlantic City International

Weather History for KACY - October, 2012

Change the Weather History Date:

Wednesday, October 3, 2012

  Actual Average Record
Temperature  
Mean Temperature 78 °F 60 °F  
Max Temperature 85 °F 71 °F 90 °F (1919)
Min Temperature 70 °F 50 °F 30 °F (1974)
Degree Days  
Heating Degree Days 0 6  
Month to date heating degree days 5 16  
Since 1 July heating degree days 53 78  
Cooling Degree Days 13 1  
Month to date cooling degree days 16 4  
Year to date cooling degree days 1203 1038  
Growing Degree Days 28 (Base 50)    
Moisture  
Dew Point 71 °F    
Average Humidity 79    
Maximum Humidity 100    
Minimum Humidity 58    
Precipitation  
Precipitation 0.00 in 0.10 in 1.17 in (2009)
Month to date precipitation 0.43 0.32  
Year to date precipitation 32.45 31.69  
Snow  
Snow 0.00 in 0.00 in 0.00 in ()
Month to date snowfall 0.0 0.0  
Since 1 July snowfall 0.0 0.0  
Since 1 September snowfall 0.0 0.0  
Snow Depth 0.00 in    
Sea Level Pressure  
Sea Level Pressure 30.05 in    
Wind  
Wind Speed 4 mph (SSW)    
Max Wind Speed 13 mph    
Max Gust Speed 16 mph    
Visibility 4 miles    
Events Fog    
T = Trace of Precipitation, MM = Missing Value Source: NWS Daily Summary

Daily Weather History Graph

Daily Weather History Graph

Search for Another Location

Airport or City:

Trip Planner

Search our weather history database for the weather conditions in past years. The results will help you decide how hot, cold, wet, or windy it might be!

Date:

Astronomy

Oct. 03, 2012 Rise Set
Actual Time 6:56 AM EDT 6:36 PM EDT
Civil Twilight 6:29 AM EDT 7:03 PM EDT
Nautical Twilight 5:58 AM EDT 7:34 PM EDT
Astronomical Twilight 5:27 AM EDT 8:06 PM EDT
Moon 8:28 PM EDT (10/3) 10:16 AM EDT (10/3)
Length of Visible Light 12h 33m
Length of Day
11h 40m
Waning Gibbous, 89% of the Moon is Illuminated
Oct 3
Waning Gibbous
Oct 8
Last Quarter
Oct 15
New
Oct 21
First Quarter
Oct 29
Full

Hourly Weather History & Observations

Time (EDT) Temp. Heat Index Dew Point Humidity Pressure Visibility Wind Dir Wind Speed Gust Speed Precip Events Conditions
12:54 AM 71.1 °F - 70.0 °F 96% 29.97 in 0.5 mi SSW 3.5 mph - N/A Fog Fog
1:09 AM 71.6 °F - 71.6 °F 100% 29.97 in 0.2 mi Calm Calm - N/A Fog Fog
1:54 AM 71.1 °F - 71.1 °F 100% 29.98 in 0.2 mi Calm Calm - N/A Fog Fog
2:54 AM 72.0 °F - 71.1 °F 97% 29.99 in 0.5 mi Calm Calm - N/A Fog Fog
3:44 AM 71.6 °F - 71.6 °F 100% 29.99 in 1.0 mi Calm Calm - N/A   Overcast
3:51 AM 71.6 °F - 69.8 °F 94% 29.99 in 0.5 mi Calm Calm - N/A Fog Fog
3:54 AM 72.0 °F - 70.0 °F 93% 29.99 in 0.5 mi Calm Calm - N/A Fog Fog
4:44 AM 71.6 °F - 71.6 °F 100% 30.00 in 0.2 mi Calm Calm - N/A Fog Fog
4:54 AM 72.0 °F - 71.1 °F 97% 30.01 in 0.2 mi Calm Calm - N/A Fog Fog
5:17 AM 71.6 °F - 71.6 °F 100% 30.01 in 0.5 mi Calm Calm - N/A Fog Fog
5:38 AM 71.6 °F - 71.6 °F 100% 30.01 in 1.0 mi Calm Calm - N/A   Mist
5:45 AM 71.6 °F - 71.6 °F 100% 30.01 in 0.8 mi SSE 3.5 mph - N/A   Mist
5:54 AM 72.0 °F - 71.1 °F 97% 30.02 in 0.5 mi Calm Calm - N/A Fog Fog
6:07 AM 71.6 °F - 71.6 °F 100% 30.02 in 0.2 mi Calm Calm - N/A Fog Fog
6:54 AM 72.0 °F - 71.1 °F 97% 30.02 in 0.5 mi SE 3.5 mph - N/A Fog Fog
7:08 AM 71.6 °F - 69.8 °F 94% 30.03 in 0.2 mi ESE 3.5 mph - N/A Fog Fog
7:54 AM 72.0 °F - 71.1 °F 97% 30.05 in 0.2 mi Calm Calm - N/A Fog Fog
8:35 AM 73.4 °F - 71.6 °F 94% 30.05 in 0.5 mi SSW 3.5 mph - N/A Fog Fog
8:46 AM 73.4 °F - 71.6 °F 94% 30.06 in 1.2 mi SSW 3.5 mph - N/A   Overcast
8:54 AM 73.0 °F - 72.0 °F 96% 30.06 in 1.0 mi Calm Calm - N/A   Overcast
8:56 AM 73.4 °F - 71.6 °F 94% 30.06 in 0.2 mi Calm Calm - N/A   Overcast
9:54 AM 75.0 °F - 73.0 °F 94% 30.07 in 0.2 mi SSW 4.6 mph - N/A   Overcast
10:01 AM 75.2 °F - 73.4 °F 94% 30.07 in 1.5 mi SSW 4.6 mph - N/A   Overcast
10:15 AM 75.2 °F - 73.4 °F 94% 30.07 in 1.5 mi SW 4.6 mph - N/A   Overcast
10:54 AM 77.0 °F - 73.9 °F 90% 30.07 in 1.5 mi SW 8.1 mph - N/A   Overcast
11:03 AM 78.8 °F - 73.4 °F 83% 30.07 in 7.0 mi SW 3.5 mph - N/A   Overcast
11:23 AM 80.6 °F 85.4 °F 73.4 °F 79% 30.07 in 8.0 mi WSW 8.1 mph - N/A   Mostly Cloudy
11:33 AM 80.6 °F 85.4 °F 73.4 °F 79% 30.07 in 9.0 mi SW 8.1 mph - N/A   Mostly Cloudy
11:54 AM 82.0 °F 87.4 °F 73.0 °F 74% 30.06 in 9.0 mi SW 8.1 mph - N/A   Mostly Cloudy
12:12 PM 80.6 °F 85.4 °F 73.4 °F 79% 30.06 in 9.0 mi SW 6.9 mph - N/A   Scattered Clouds
12:54 PM 82.9 °F 88.0 °F 72.0 °F 69% 30.06 in 10.0 mi SSW 8.1 mph - N/A   Partly Cloudy
1:54 PM 84.0 °F 87.8 °F 69.1 °F 61% 30.05 in 10.0 mi SSW 6.9 mph - N/A   Mostly Cloudy
2:54 PM 81.0 °F 84.9 °F 71.1 °F 72% 30.05 in 10.0 mi South 8.1 mph 16.1 mph N/A   Clear
3:54 PM 81.0 °F 84.4 °F 70.0 °F 69% 30.06 in 10.0 mi SSW 8.1 mph - N/A   Clear
4:54 PM 81.0 °F 83.0 °F 66.0 °F 60% 30.06 in 10.0 mi WSW 9.2 mph - N/A   Clear
5:54 PM 80.1 °F 81.9 °F 64.9 °F 60% 30.07 in 10.0 mi WSW 5.8 mph - N/A   Clear
6:54 PM 77.0 °F - 66.9 °F 71% 30.09 in 10.0 mi SW 4.6 mph - N/A   Clear
7:54 PM 75.9 °F - 66.9 °F 74% 30.10 in 10.0 mi SW 4.6 mph - N/A   Clear
8:54 PM 75.0 °F - 66.9 °F 76% 30.12 in 10.0 mi WSW 4.6 mph - N/A   Clear
9:54 PM 73.9 °F - 66.9 °F 79% 30.13 in 10.0 mi West 3.5 mph - N/A   Clear
10:54 PM 73.0 °F - 66.9 °F 81% 30.13 in 10.0 mi Calm Calm - N/A   Clear
11:54 PM 72.0 °F - 66.9 °F 84% 30.14 in 10.0 mi Calm Calm - N/A   Partly Cloudy